Regional Weather Roundup
Issued by NWS

Home | Current Version | Previous Version | Text Only | Print | Product List | Glossary On
Versions: 1 2 3 4 5 6 7 8 9 10 11 12 13 14 15 16 17 18 19 20 21 22 23 24 25 26 27
000
ASUS45 KREV 250810
RWRNV
NEVADA REGIONAL WEATHER ROUNDUP
NATIONAL WEATHER SERVICE RENO NV
100 AM PDT SUN SEP 25 2016

NOTE: "FAIR" INDICATES FEW OR NO CLOUDS BELOW 12,000 FEET WITH NO
SIGNIFICANT WEATHER AND/OR OBSTRUCTIONS TO VISIBILITY.

NVZ001-003-004-250900-
WESTERN NEVADA

CITY           SKY/WX    TMP DP  RH WIND       PRES   REMARKS
RENO           CLEAR     53  30  41 CALM      30.41R
CARSON CITY    FAIR      52  28  40 CALM      30.43R
MINDEN         FAIR      41  25  52 SE3       30.42S
PYRAMID LAKE     N/A     66 N/A N/A SW3         N/A
FALLON         CLEAR     51  29  42 CALM      30.37S
LOVELOCK       CLEAR     46  25  43 E5        30.39R
$$

NVZ002-CAZ072-073-250900-
NORTHERN AND CENTRAL SIERRA

CITY           SKY/WX    TMP DP  RH WIND       PRES   REMARKS
S. LAKE TAHOE  CLEAR     47  26  44 VRB6      30.44R
TRUCKEE        CLEAR     37  21  52 CALM      30.45S
SQUAW VLY 8000 NOT AVBL
MAMMOTH LAKES  FAIR      43  17  35 N3        30.50F
BRIDGEPORT       N/A     38  13  35 CALM      30.49S
$$

NVZ030-031-036-250900-
NORTHERN NEVADA

CITY           SKY/WX    TMP DP  RH WIND       PRES   REMARKS
ELKO           CLEAR     42  34  73 CALM      30.44S
WINNEMUCCA     CLEAR     41  22  46 SE5       30.42R
WENDOVER       CLEAR     50  39  66 CALM      30.41S
$$

NVZ035-037-250900-
CENTRAL NEVADA

CITY           SKY/WX    TMP DP  RH WIND       PRES   REMARKS
ELY            CLEAR     32  29  88 S6        30.46R
EUREKA           N/A     38  32  79 SW3       30.46R
$$

NVZ013-014-250900-
SOUTH CENTRAL NEVADA

CITY           SKY/WX    TMP DP  RH WIND       PRES   REMARKS
TONOPAH        CLEAR     55  28  35 N8        30.40R
$$

NVZ017-020-022-250900-
SOUTHERN NEVADA

CITY           SKY/WX    TMP DP  RH WIND       PRES   REMARKS
LAS VEGAS      CLEAR     73  29  19 NE5       30.16R
N. LAS VEGAS   CLEAR     73  29  19 E12       30.15R
NELLIS AFB     CLEAR     69  32  26 NE13      30.14R
HENDERSON      CLEAR     64  33  31 NE6       30.19R
MERCURY        CLEAR     69  21  16 NE15      30.22R
$$




USA.gov is the U.S. government's official web portal to all federal, state and local government web resources and services.